Regional Weather Roundup
Issued by NWS Kansas City/Pleasant Hill, MO

Home | Current Version | Previous Version | Graphics & Text | Print | Product List | Glossary Off
Versions: 1 2 3 4 5 6 7 8 9 10 11 12 13 14 15 16 17 18 19 20 21 22 23 24 25 26 27 28 29 30 31 32 33 34 35 36 37 38 39 40 41 42 43 44 45 46 47 48 49 50

000
ASUS43 KEAX 060110
RWREAX

WEATHER ROUNDUP FOR EASTERN KANSAS AND NORTHWEST MISSOURI
NATIONAL WEATHER SERVICE KANSAS CITY/PLEASANT HILL MO
800 PM CDT THU MAY 05 2016

KSZ040-057-103>105-MOZ028-029-037-043-060200-
...KANSAS CITY METROPOLITAN AREA...

CITY           SKY/WX    TMP DP  RH WIND       PRES   REMARKS
K.C. INTL      PTCLDY    66  40  38 NE6       30.02F
K.C. DOWNTOWN  CLEAR     69  36  29 NE5       30.01S
LEES SUMMIT    CLEAR     67  37  33 NE6       30.03S
OLATHE - IXD   CLEAR     63  44  50 N6        30.03S
OLATHE - OJC   CLEAR     67  37  33 NE6       30.02S
LAWRENCE       CLEAR     68  46  45 CALM      30.02S

$$

MOZ001>008-011>017-020>025-030>033-038>040-044>046-053-054-060200-
...NORTHERN AND CENTRAL MISSOURI...

CITY           SKY/WX    TMP DP  RH WIND       PRES   REMARKS
ST. JOSEPH     CLEAR     68  39  34 E5        30.02S
MOSBY          CLEAR     66  41  39 CALM      30.02S
WARRENSBURG    CLEAR     66  34  30 CALM      30.02S
WHITEMAN AFB   CLEAR     65  37  36 N5        30.01S
CLINTON        CLEAR     64  41  42 CALM      30.03S
SEDALIA        CLEAR     65  35  33 NE3       30.03S
WARSAW         NOT AVBL
CHILLICOTHE      N/A     64  47  53 CALM      30.03S
KIRKSVILLE     CLEAR     59  37  44 CALM      30.03S

$$

MOZ041-047>049-056>058-063>065-088>090-097-060200-
...EASTERN AND SOUTHERN MISSOURI...

CITY           SKY/WX    TMP DP  RH WIND       PRES   REMARKS
ST. LOUIS INTL PTCLDY    63  42  46 N5        30.01R
SPIRIT OF STL  PTCLDY    64  41  42 N3        30.00R
COLUMBIA       CLEAR     64  40  41 NE5       30.02S
JEFFERSON CITY CLEAR     66  37  34 E3        30.01S
ROLLA          CLEAR     59  39  47 N5        30.00S
OSAGE BEACH    CLEAR     61  30  31 N3        30.02S
SPRINGFIELD    CLEAR     62  35  36 N6        30.01S
BRANSON        PTCLDY    64  34  32 NW7       30.02R
JOPLIN         CLEAR     65  44  46 N7        30.02S
WEST PLAINS    CLEAR     61  32  33 N5        30.01R

$$

IAZ060-094-KSZ022-034>040-054-083-096-NEZ052-066-093-060200-
...KANSAS...SOUTHEAST NEBRASKA AND IOWA...

CITY           SKY/WX    TMP DP  RH WIND       PRES   REMARKS
TOPEKA         CLEAR     73  40  30 CALM      30.01S
MANHATTAN      CLEAR     70  50  49 CALM      30.00S
EMPORIA        CLEAR     70  46  42 NE5       30.01S
CHANUTE        CLEAR     70  43  37 NE6       30.01S
WICHITA        CLEAR     72  47  40 SW6       30.01R
OMAHA          MOCLDY    71  44  37 SE7       29.99S
LINCOLN        CLEAR     75  41  29 SE7       29.99F
FALLS CITY     CLEAR     70  41  34 E5        30.00F
LAMONI         CLEAR     66  41  40 CALM      30.01F
DES MOINES     PTCLDY    68  36  30 S6        30.00S

$$




USA.gov is the U.S. government's official web portal to all federal, state and local government web resources and services.